San Diego, CA

3:55 PM PST on January 16, 2018 (GMT -0800)
San Diego International-Lindbergh

Weather History for KSAN - January, 2013

Change the Weather History Date:

Monday, January 7, 2013

  Actual Average Record
Temperature  
Mean Temperature 56 °F 57 °F  
Max Temperature 64 °F 65 °F 82 °F (2003)
Min Temperature 47 °F 49 °F 25 °F (1913)
Degree Days  
Heating Degree Days 9 8  
Month to date heating degree days 79 59  
Since 1 July heating degree days 399 466  
Cooling Degree Days 0 0  
Month to date cooling degree days 0 0  
Year to date cooling degree days 0 0  
Growing Degree Days 5 (Base 50)    
Moisture  
Dew Point 41 °F    
Average Humidity 62    
Maximum Humidity 93    
Minimum Humidity 30    
Precipitation  
Precipitation 0.01 in 0.06 in 1.27 in (1957)
Month to date precipitation 0.17 0.46  
Year to date precipitation 0.17 0.46  
Since 1 July precipitation 3.34  
Snow  
Snow 0.00 in - - ()
Month to date snowfall 0.0  
Year to date snowfall 0.0  
Snow Depth 0.00 in    
Sea Level Pressure  
Sea Level Pressure 30.04 in    
Wind  
Wind Speed 5 mph (NNW)    
Max Wind Speed 16 mph    
Max Gust Speed 21 mph    
Visibility 10 miles    
Events Rain    
T = Trace of Precipitation, MM = Missing Value Source: NWS Daily Summary

Daily Weather History Graph

Daily Weather History Graph

Search for Another Location

Airport or City:

Trip Planner

Search our weather history database for the weather conditions in past years. The results will help you decide how hot, cold, wet, or windy it might be!

Date:

Astronomy

Jan. 07, 2013 Rise Set
Actual Time 6:51 AM PST 4:58 PM PST
Civil Twilight 6:24 AM PST 5:25 PM PST
Nautical Twilight 5:54 AM PST 5:56 PM PST
Astronomical Twilight 5:24 AM PST 6:26 PM PST
Moon 2:24 AM PST (1/7) 1:10 PM PST (1/7)
Length of Visible Light 11h 00m
Length of Day
10h 06m
Waning Crescent, 21% of the Moon is Illuminated
Jan 7
Waning Crescent
Jan 11
New
Jan 18
First Quarter
Jan 26
Full
Feb 3
Last Quarter

Hourly Weather History & Observations

Time (PST) Temp. Dew Point Humidity Pressure Visibility Wind Dir Wind Speed Gust Speed Precip Events Conditions
12:51 AM 52.0 °F 46.0 °F 80% 30.02 in 7.0 mi North 3.5 mph - 0.01 in Rain Light Rain
1:51 AM 51.1 °F 46.9 °F 86% 30.00 in 10.0 mi Calm Calm - N/A   Overcast
2:51 AM 50.0 °F 46.0 °F 86% 29.99 in 9.0 mi NNE 4.6 mph - N/A   Scattered Clouds
3:51 AM 48.9 °F 46.0 °F 90% 30.00 in 10.0 mi Calm Calm - N/A   Mostly Cloudy
4:51 AM 48.9 °F 45.0 °F 86% 30.01 in 10.0 mi North 3.5 mph - N/A   Mostly Cloudy
5:51 AM 48.0 °F 44.1 °F 86% 30.03 in 10.0 mi NNW 4.6 mph - N/A   Partly Cloudy
6:51 AM 48.0 °F 39.9 °F 74% 30.06 in 10.0 mi NW 8.1 mph - N/A   Scattered Clouds
7:51 AM 48.9 °F 39.9 °F 71% 30.06 in 10.0 mi NNE 9.2 mph - N/A   Scattered Clouds
8:51 AM 52.0 °F 41.0 °F 66% 30.09 in 10.0 mi NNE 9.2 mph - N/A   Scattered Clouds
9:51 AM 55.0 °F 41.0 °F 59% 30.10 in 10.0 mi NNW 5.8 mph - N/A   Scattered Clouds
10:51 AM 57.9 °F 37.9 °F 47% 30.08 in 10.0 mi NNW 6.9 mph - N/A   Scattered Clouds
11:51 AM 59.0 °F 33.1 °F 38% 30.05 in 10.0 mi NW 10.4 mph - N/A   Scattered Clouds
12:51 PM 61.0 °F 30.9 °F 32% 30.02 in 10.0 mi NW 9.2 mph - N/A   Scattered Clouds
1:51 PM 64.0 °F 32.0 °F 30% 30.00 in 10.0 mi NW 9.2 mph - N/A   Scattered Clouds
2:51 PM 61.0 °F 39.0 °F 44% 30.00 in 10.0 mi NW 10.4 mph - N/A   Scattered Clouds
3:51 PM 60.1 °F 43.0 °F 53% 30.01 in 10.0 mi NNW 10.4 mph - N/A   Scattered Clouds
4:51 PM 59.0 °F 42.1 °F 53% 30.02 in 10.0 mi NW 3.5 mph - N/A   Scattered Clouds
5:51 PM 57.9 °F 39.9 °F 51% 30.03 in 10.0 mi NNW 4.6 mph - N/A   Scattered Clouds
6:51 PM 55.9 °F 43.0 °F 62% 30.03 in 10.0 mi NE 4.6 mph - N/A   Partly Cloudy
7:51 PM 55.9 °F 43.0 °F 62% 30.04 in 10.0 mi Calm Calm - N/A   Partly Cloudy
8:51 PM 53.1 °F 43.0 °F 69% 30.05 in 10.0 mi Calm Calm - N/A   Partly Cloudy
9:51 PM 51.1 °F 41.0 °F 68% 30.06 in 10.0 mi Calm Calm - N/A   Partly Cloudy
10:51 PM 51.1 °F 41.0 °F 68% 30.06 in 10.0 mi Calm Calm - N/A   Scattered Clouds
11:51 PM 48.9 °F 39.9 °F 71% 30.05 in 10.0 mi Calm Calm - N/A   Partly Cloudy